CZ-6A DEB, 56239

Orbit data source: Space-Track

CZ-6A DEB, 56239 is space debris in SSO originally from a launch on Fri, 11 Nov 2022 UTC launched from the Taiyaun Space Center, China (TSC). Debris objects in space refer to the collection of defunct objects orbiting the Earth. Examples of debris include non-operational satellites, rocket bodies, and fragments generated from explosions, collisions, or faulty payload assembly.

Loading next visibility...
Identifier
56239, 2022-151ABF
Orbit
SSO
Country
Flag of CNCN / PRC
Related business
Manufacturer
SAST
Mission
Spacecraft
Bus & Motor
Unknown
Mass
Unknown
Launch date (UTC)
2022-11-11 (3 years ago)
Launch vehicle
Unknown
Launch site
Taiyaun Space Center, China (TSC)
Object type
Payload
Rocket body
Debris
Shape & HBR
Unknown shape, 0.1 m
Radar Cross Section
Small (<0.1 m²)

Expand to show TLE details & history
Last TLE update: 2 days ago

TLE from 2 days ago
0 CZ-6A DEB
1 56239U 22151ABF 25348.49029262  .00005253  00000-0  18640-2 0  9998
2 56239  98.6918   0.5984 0065450 302.4116  57.0747 14.33671540147771
Epoch: 2025-12-14T11:46Z
TLE epoch observation values (Epoch: 2025-12-14T11:46:01.282Z)
Latitude
-0.00004°
Longitude
100.6906°
Altitude
757.167 km
Speed
7.489 km/s
True Right ascension
00h 02m 23s
True Declination
0° 00' 00"
Sunlit
Object was in daylight at epoch
Visualization orbit readout
Latitude
Unknown
Longitude
Unknown
Altitude
Unknown
Speed
Unknown
Apparent Right ascension
Unknown
Apparent Declination
Unknown
Sunlit
N/A
Visualization observer readout
Local Sidereal Time
06:12:52
Azimuth
Unknown
Elevation
Unknown
Doppler factor
Unknown
Orbital elements
Apogee altitude
823.452 km
Perigee altitude
729.796 km
Semi-major axis
7,154.761 km
Eccentricity
0.00655
Inclination
98.6918°
RAAN
0.5984°
Arg. of periapsis
302.4116°
True anomaly
57.70704°
Mean anomaly
57.0747°
Eccentric anomaly
57.39059°
Mean motion
3.58633 °/min
Orbital period
100.38 mins
BSTAR
0.001864
Loading maneuver chart data...
Computing Atmospheric mass density...
Loading historical data...
Loading historical data...
Loading historical data...
Loading historical data...
Loading historical data...
Loading historical data...
Loading historical data...

Documentation

Showing up to 5 results
|